[[{"header":{"parameterUnit":"m.s-1","parameterCategory":1,"la1":30.2991,"la2":30.254,"lo1":-89.0895,"lo2":-89.0444,"dy":0.0017,"dx":0.0017,"nx":28,"ny":28,"refTime":"2025-09-13T03:00:00:Z","depth":0,"parameterNumber":2,"parameterNumberName":"U-component_of_WINDS"},"data":[0,0,0,0,0,0,0,0,0,0,0,0,0,0,0,0,0,0,0,0,0,0,0,0,0,0,0,0,0,0,0,0,0,0,0,0,0,0,0,0,0,0,0,0,0,0,0,0,0,0,0,0,0,0,0,0,0,0,-0.5366,-0.5365,0,-0.5323,-0.5323,-0.5322,-0.5264,-0.5263,-0.5262,-0.5261,-0.5218,-0.5218,-0.5218,0,0,0,0,0,0,0,0,0,0,0,0,0,-0.5398,-0.5398,-0.5366,-0.5365,-0.5365,-0.5323,-0.5323,-0.5322,-0.5264,-0.5263,-0.5262,-0.526,-0.5218,-0.5218,-0.5218,0,0,0,0,0,0,0,0,0,0,0,0,0,-0.5373,-0.5397,-0.5366,-0.5331,-0.5327,-0.5323,-0.5323,-0.5322,-0.5264,-0.5263,-0.5261,-0.526,-0.5218,-0.5218,-0.5218,-0.5245,0,0,-0.5217,-0.5217,0,0,0,0,0,0,0,0,-0.5374,-0.5371,-0.5336,-0.5333,-0.5329,-0.5297,-0.5318,-0.5296,-0.5265,-0.5288,-0.5261,-0.5259,-0.5246,-0.5243,-0.5238,-0.5243,-0.5242,-0.5217,-0.5217,-0.5216,-0.5216,0,0,0,0,0,0,0,-0.5376,-0.5373,-0.5349,-0.5336,-0.5332,-0.5317,-0.5312,-0.5314,-0.5276,-0.5286,-0.5282,-0.5277,-0.5244,-0.5239,-0.5237,-0.5241,-0.5217,-0.5216,-0.5216,-0.5216,-0.5267,-0.5268,0,0,0,0,0,0,-0.5383,-0.5375,-0.535,-0.5348,-0.5348,-0.5318,-0.5312,-0.5309,-0.5276,-0.5269,-0.5279,-0.5275,-0.524,-0.5237,-0.5235,-0.5266,-0.5216,-0.5216,-0.5216,-0.5265,-0.5267,-0.5269,0,0,0,0,0,0,-0.5384,-0.5381,-0.5352,-0.536,-0.5355,-0.5319,-0.5316,-0.5309,-0.5304,-0.527,-0.5263,-0.5281,-0.5239,-0.5236,-0.5243,-0.5264,-0.5216,-0.5216,-0.5264,-0.5266,-0.5268,-0.5327,0,0,0,0,0,0,-0.5385,-0.5382,-0.5392,-0.5361,-0.5355,-0.5361,-0.5317,-0.5309,-0.5304,-0.5298,-0.527,-0.5264,-0.5237,-0.5244,-0.5243,-0.5262,-0.5215,-0.5262,-0.5265,-0.5267,-0.5323,-0.5331,-0.5338,0,0,0,0,0,-0.5386,-0.541,-0.5393,-0.539,-0.5367,-0.5362,-0.5359,-0.5327,-0.5306,-0.5316,-0.5294,-0.5265,-0.5261,-0.5245,-0.5244,-0.5263,-0.526,-0.5264,-0.5267,-0.532,-0.533,-0.5338,0,0,0,0,0,0,-0.5445,-0.5405,-0.5385,-0.54,-0.5385,-0.5352,-0.5364,-0.5339,-0.5329,-0.5325,-0.5286,-0.528,-0.5293,-0.5279,-0.5261,-0.5288,-0.5257,-0.526,-0.5297,-0.5306,-0.5313,-0.5317,-0.5215,0,0,0,0,0,-0.5459,-0.5459,-0.5424,-0.5441,-0.5434,-0.54,-0.5397,-0.5374,-0.5357,-0.535,-0.5329,-0.5314,-0.5309,-0.5307,-0.53,-0.5321,-0.5314,-0.5333,-0.5341,-0.5347,-0.535,-0.5361,-0.5369,-0.528,-0.528,-0.528,0,0,-0.549,-0.5468,-0.547,-0.5452,-0.5437,-0.5438,-0.5395,-0.5398,-0.5398,-0.5351,-0.5357,-0.5341,-0.5321,-0.5335,-0.534,-0.5324,-0.5373,-0.5351,-0.5357,-0.5357,-0.5365,-0.5373,-0.5381,-0.5283,-0.5282,-0.5282,0,0,-0.5545,-0.5529,-0.554,-0.5527,-0.5505,-0.5483,-0.5486,-0.5457,-0.5444,-0.5449,-0.5414,-0.5414,-0.5407,-0.5394,-0.5387,-0.5438,-0.5412,-0.5437,-0.5476,-0.5486,-0.5493,-0.5499,-0.5518,-0.5525,-0.544,-0.5441,-0.5441,0,-0.5586,-0.5585,-0.555,-0.5554,-0.5548,-0.5505,-0.5517,-0.5505,-0.5483,-0.548,-0.5461,-0.5451,-0.5435,-0.5446,-0.5458,-0.5454,-0.5456,-0.544,-0.5495,-0.5501,-0.5506,-0.5523,-0.553,-0.5444,-0.5444,-0.5443,-0.5443,0,-0.5636,-0.5636,-0.5648,-0.5627,-0.5622,-0.563,-0.5597,-0.5596,-0.5573,-0.5553,-0.5559,-0.5538,-0.5527,-0.5528,-0.5506,-0.5536,-0.5526,-0.5502,-0.5469,-0.5518,-0.5534,-0.554,-0.5449,-0.5447,-0.5446,-0.5446,0,0,-0.5728,-0.5687,-0.5692,-0.5683,-0.5656,-0.5655,-0.5662,-0.5651,-0.5651,-0.5637,-0.5642,-0.5636,-0.5614,-0.5606,-0.5582,-0.5591,-0.5634,-0.5565,-0.5564,-0.5579,-0.5666,-0.5685,-0.5694,-0.5616,-0.5617,-0.5618,-0.5668,0,-0.5778,-0.5787,-0.5756,-0.5772,-0.5772,-0.5731,-0.5737,-0.5722,-0.5703,-0.57,-0.5679,-0.5676,-0.5646,-0.5641,-0.5648,-0.5627,-0.5651,-0.5623,-0.5621,-0.5621,-0.5628,-0.5702,-0.5722,-0.577,-0.5674,-0.5675,-0.5676,0,-0.5839,-0.5828,-0.5845,-0.5817,-0.5816,-0.5821,-0.5809,-0.5807,-0.5788,-0.5774,-0.5765,-0.5737,-0.5742,-0.5711,-0.5717,-0.5699,-0.5696,-0.5686,-0.5687,-0.5686,-0.5652,-0.5704,-0.5785,-0.5793,-0.5685,-0.5684,-0.5684,0,-0.5905,-0.5895,-0.5903,-0.5896,-0.5864,-0.5869,-0.5856,-0.5836,-0.5831,-0.582,-0.5817,-0.5807,-0.5802,-0.5795,-0.5766,-0.5745,-0.5776,-0.5742,-0.5765,-0.5766,-0.5774,-0.5774,-0.5857,-0.5771,-0.5771,-0.5771,-0.5771,0,-0.5966,-0.5978,-0.5932,-0.5938,-0.595,-0.5914,-0.5928,-0.5911,-0.5893,-0.5895,-0.5859,-0.5862,-0.5822,-0.5821,-0.5798,-0.5807,-0.5805,-0.5794,-0.5788,-0.5798,-0.5799,-0.5796,-0.5792,-0.5773,-0.5772,-0.5772,-0.5772,0,-0.6042,-0.6012,-0.6019,-0.5988,-0.598,-0.5991,-0.5964,-0.5968,-0.5947,-0.595,-0.5948,-0.5915,-0.5911,-0.5881,-0.5871,-0.5855,-0.5874,-0.5861,-0.588,-0.5876,-0.5901,-0.59,-0.5986,-0.5995,-0.5903,-0.5904,-0.5904,0,-0.6083,-0.6091,-0.6061,-0.6059,-0.6048,-0.6046,-0.6041,-0.6006,-0.6002,-0.5982,-0.5989,-0.5982,-0.5974,-0.597,-0.5946,-0.5938,-0.5925,-0.5955,-0.5923,-0.5933,-0.5926,-0.5927,-0.5928,-0.5963,-0.5964,-0.5965,-0.5966,0,-0.616,-0.6144,-0.6138,-0.6127,-0.6122,-0.6112,-0.61,-0.6101,-0.6062,-0.606,-0.6055,-0.605,-0.6039,-0.6033,-0.6021,-0.6007,-0.5981,-0.5976,-0.5981,-0.5991,-0.6003,-0.5998,-0.59,-0.5974,-0.5973,-0.5973,-0.5972,-0.5972,-0.622,-0.6226,-0.6205,-0.62,-0.6186,-0.6176,-0.6178,-0.6157,-0.6152,-0.6141,-0.612,-0.6119,-0.61,-0.6081,-0.607,-0.6069,-0.6053,-0.606,-0.6062,-0.6065,-0.607,-0.6002,-0.6067,-0.6066,-0.6066,-0.6066,-0.6065,0,-0.6295,-0.628,-0.6275,-0.6259,-0.6255,-0.6229,-0.6214,-0.6212,-0.6211,-0.6196,-0.619,-0.6185,-0.6179,-0.6154,-0.6145,-0.6149,-0.6137,-0.6148,-0.6148,-0.6146,-0.6085,-0.6081,-0.6159,-0.6159,-0.6159,-0.6159,-0.6159,-0.6159,-0.6334,-0.6342,-0.6325,-0.6326,-0.6311,-0.6309,-0.6303,-0.6293,-0.628,-0.6276,-0.6271,-0.6254,-0.6235,-0.6225,-0.6219,-0.6211,-0.621,-0.6226,-0.6215,-0.6159,-0.615,-0.6141,-0.6138,-0.6226,-0.6226,-0.6277,-0.6277,-0.6277]},{"header":{"parameterUnit":"m.s-1","parameterCategory":1,"la1":30.2991,"la2":30.254,"lo1":-89.0895,"lo2":-89.0444,"dy":0.0017,"dx":0.0017,"nx":28,"ny":28,"refTime":"2025-09-13T03:00:00:Z","depth":0,"parameterNumber":3,"parameterNumberName":"V-component_of_WINDS"},"data":[0,0,0,0,0,0,0,0,0,0,0,0,0,0,0,0,0,0,0,0,0,0,0,0,0,0,0,0,0,0,0,0,0,0,0,0,0,0,0,0,0,0,0,0,0,0,0,0,0,0,0,0,0,0,0,0,0,0,2.4162,2.4162,0,2.418,2.4181,2.4181,2.4192,2.4192,2.4192,2.4192,2.4209,2.4209,2.4209,0,0,0,0,0,0,0,0,0,0,0,0,0,2.4136,2.4136,2.4162,2.4162,2.4163,2.418,2.4181,2.4181,2.4192,2.4192,2.4192,2.4192,2.4209,2.4209,2.421,0,0,0,0,0,0,0,0,0,0,0,0,0,2.415,2.4136,2.4162,2.417,2.4171,2.418,2.4181,2.4181,2.4192,2.4192,2.4192,2.4192,2.4208,2.4209,2.421,2.4211,0,0,2.4211,2.4212,0,0,0,0,0,0,0,0,2.4149,2.4151,2.4169,2.417,2.4171,2.4184,2.4177,2.4191,2.4192,2.4184,2.4192,2.4192,2.42,2.4202,2.4205,2.4212,2.4213,2.4211,2.4212,2.4212,2.4212,0,0,0,0,0,0,0,2.4148,2.415,2.4169,2.4169,2.417,2.4173,2.4175,2.418,2.4191,2.4185,2.4186,2.4188,2.4201,2.4204,2.4205,2.4213,2.4211,2.4212,2.4212,2.4212,2.4222,2.4222,0,0,0,0,0,0,2.4146,2.4149,2.4169,2.417,2.416,2.4173,2.4175,2.418,2.4191,2.4193,2.4188,2.4188,2.4203,2.4204,2.4206,2.4208,2.4212,2.4213,2.4213,2.4222,2.4222,2.4222,0,0,0,0,0,0,2.4145,2.4148,2.4168,2.416,2.4163,2.4173,2.4178,2.418,2.4183,2.4194,2.4195,2.4189,2.4203,2.4205,2.421,2.4209,2.4213,2.4213,2.4222,2.4222,2.4222,2.4214,0,0,0,0,0,0,2.4145,2.4147,2.4148,2.416,2.4163,2.4172,2.4178,2.418,2.4184,2.4185,2.4195,2.4197,2.4203,2.4209,2.421,2.421,2.4214,2.4223,2.4222,2.4222,2.4214,2.4213,2.4213,0,0,0,0,0,2.4144,2.4145,2.4148,2.4151,2.4165,2.4172,2.4174,2.4182,2.4184,2.4185,2.4192,2.4197,2.4209,2.4209,2.4211,2.4211,2.4223,2.4222,2.4222,2.4214,2.4213,2.4213,0,0,0,0,0,0,2.4132,2.4146,2.415,2.4156,2.4163,2.4174,2.4175,2.4181,2.4187,2.4187,2.4196,2.4198,2.4202,2.4207,2.4207,2.4213,2.4216,2.4217,2.421,2.4209,2.4208,2.4207,2.4214,0,0,0,0,0,2.413,2.4136,2.4148,2.4151,2.4155,2.4164,2.4168,2.4174,2.4181,2.4184,2.4191,2.4197,2.4203,2.4206,2.4212,2.4215,2.4217,2.4215,2.4215,2.4214,2.4214,2.4216,2.4215,2.4222,2.4222,2.4222,0,0,2.4126,2.4135,2.4138,2.4149,2.4155,2.416,2.4167,2.4172,2.4176,2.4184,2.419,2.4195,2.4203,2.4207,2.4209,2.4211,2.4213,2.4214,2.4213,2.4214,2.4216,2.4215,2.4215,2.4222,2.4222,2.4222,0,0,2.4122,2.4129,2.4133,2.4139,2.4148,2.4155,2.4156,2.4167,2.4171,2.4176,2.4183,2.4188,2.4197,2.4202,2.4206,2.4204,2.4209,2.4206,2.4202,2.4204,2.4203,2.4203,2.4202,2.4201,2.4206,2.4206,2.4206,0,2.4115,2.4124,2.4133,2.4138,2.4143,2.4152,2.4156,2.4161,2.4172,2.4174,2.4177,2.4189,2.4195,2.42,2.42,2.4203,2.4204,2.4204,2.4202,2.4202,2.4202,2.4201,2.4201,2.4205,2.4205,2.4205,2.4205,0,2.4116,2.4122,2.4123,2.4134,2.4139,2.4143,2.4153,2.4156,2.4162,2.4168,2.4173,2.4181,2.4188,2.419,2.4195,2.4196,2.4197,2.4201,2.4204,2.4201,2.42,2.42,2.4204,2.4205,2.4205,2.4205,0,0,2.4104,2.4121,2.4121,2.4126,2.4138,2.4142,2.4147,2.4155,2.4157,2.4165,2.4168,2.4176,2.418,2.4184,2.419,2.4191,2.4189,2.4195,2.4195,2.4193,2.4191,2.4188,2.4188,2.4192,2.4192,2.4192,2.419,0,2.4101,2.411,2.4119,2.4125,2.413,2.4139,2.4143,2.415,2.4156,2.4161,2.4168,2.4173,2.4178,2.418,2.4182,2.4189,2.4189,2.4189,2.4196,2.4196,2.4193,2.4188,2.4184,2.4182,2.419,2.419,2.419,0,2.4099,2.4106,2.4113,2.4124,2.4127,2.413,2.4138,2.4143,2.4151,2.4156,2.4161,2.4167,2.4172,2.4175,2.4182,2.4182,2.4185,2.4188,2.4188,2.4189,2.4193,2.4188,2.4182,2.4181,2.419,2.419,2.419,0,2.4089,2.4101,2.4107,2.4111,2.4124,2.4126,2.4132,2.4141,2.4145,2.4152,2.4154,2.4161,2.4165,2.417,2.4178,2.418,2.4183,2.4187,2.4187,2.4186,2.4187,2.4187,2.4181,2.4189,2.4189,2.4189,2.4189,0,2.4085,2.4089,2.4103,2.4106,2.411,2.412,2.4124,2.413,2.4138,2.4142,2.415,2.4154,2.4164,2.4169,2.4175,2.4179,2.4181,2.4184,2.4186,2.4183,2.4183,2.4185,2.4185,2.4189,2.4189,2.4189,2.4189,0,2.4075,2.4085,2.4092,2.4104,2.4107,2.411,2.412,2.4124,2.413,2.4136,2.4138,2.4148,2.4154,2.4162,2.4171,2.4175,2.4178,2.4181,2.4176,2.4177,2.4175,2.4175,2.4171,2.417,2.4179,2.4179,2.4179,0,2.4072,2.4075,2.4088,2.4092,2.4097,2.4104,2.4108,2.4118,2.4122,2.4132,2.4134,2.4141,2.4148,2.4157,2.4165,2.4171,2.4174,2.4172,2.4175,2.4172,2.4174,2.4173,2.4174,2.4171,2.4171,2.4171,2.4171,0,2.4064,2.4069,2.4076,2.4085,2.409,2.4097,2.4104,2.4107,2.4118,2.4123,2.413,2.4134,2.4144,2.415,2.4158,2.4163,2.4168,2.417,2.417,2.4167,2.4164,2.4166,2.4173,2.417,2.417,2.417,2.417,2.417,2.4058,2.4061,2.4071,2.4078,2.4085,2.4092,2.4096,2.4103,2.4109,2.4118,2.4123,2.413,2.4138,2.4149,2.4154,2.4159,2.4161,2.4161,2.4161,2.4161,2.4161,2.4164,2.416,2.4161,2.4161,2.4161,2.4161,0,2.405,2.4058,2.4064,2.4075,2.408,2.4086,2.4095,2.4099,2.4105,2.4112,2.4118,2.4126,2.4133,2.4142,2.4149,2.4151,2.4154,2.4152,2.4152,2.4153,2.4158,2.4157,2.415,2.415,2.415,2.415,2.415,2.415,2.4048,2.4054,2.406,2.4069,2.4076,2.4083,2.4087,2.4093,2.41,2.4108,2.4114,2.412,2.4128,2.4136,2.4142,2.4144,2.4147,2.4145,2.4148,2.4152,2.4153,2.4154,2.4153,2.4145,2.4145,2.4142,2.4142,2.4142]}]]